SCP
0 0 0 0 0 0 0 0 0 0 0 0 0 0 0 0 0 0 0 0 -0 -0 -0 -0 0 0 0 0 0 0 0 1 1 0 0 0 0 0 0 0 0 0 0
0 0 0 0 0 0 0 0 0 0 0 0 0 0 0 0 0 0 0 0 0 -0 0 -0 0 0 0 0 0 0 0 0 0 0 0 0 0 0 0 0 0 0 0
0 0 0 0 0 0 0 0 0 0 0 0 0 0 0 0 0 0 0 0 0 0 0 0 0 0 0 0 0 0 0 0 0 0 0 0 0 0 0 0 0 0 0
0 0 0 0 0 0 0 0 0 0 0 0 0 0 0 0 0 0 0 0 0 0 0 0 0 0 0 0 0 0 0 0 0 0 0 0 0 0 0 0 0 0 0
0 0 0 0 0 0 0 0 0 0 0 0 0 0 0 0 0 0 0 0 0 0 0 0 0 0 0 0 0 0 0 0 0 0 0 0 0 0 0 0 0 0 0
-0 0 0 0 0 0 0 0 0 0 0 0 0 0 0 0 0 0 -0 0 0 0 0 0 0 0 0 0 0 0 0 0 0 0 0 0 0 0 0 0 0 0 0
-0 -0 0 0 0 0 0 0 0 0 0 0 0 0 0 0 0 0 0 0 0 0 0 0 0 0 0 0 0 0 0 0 0 0 0 0 0 0 0 0 0 0 0
-0 -0 -0 -0 0 0 0 0 0 0 0 0 0 0 0 0 0 0 0 0 0 0 0 0 0 0 0 0 -0 0 0 0 0 0 0 0 0 0 0 0 0 0 0
-0 -0 -0 -0 -0 0 0 -0 0 0 0 0 0 0 0 0 0 0 0 0 0 0 0 0 0 0 0 0 -0 0 0 0 0 0 0 0 0 0 0 0 0 0 0
-0 -0 -0 -0 -0 -0 0 0 0 0 0 0 0 0 0 0 0 0 0 0 0 0 0 0 0 0 0 0 0 -0 0 -0 -0 -0 0 0 0 0 0 0 0 0 0
-0 -0 -0 -0 -0 -0 0 0 0 0 0 0 0 0 0 0 0 0 0 0 0 0 0 0 0 0 0 0 0 0 0 0 0 0 0 0 0 0 0 0 0 0 0
-0 -0 -0 -0 -0 -0 -0 -0 0 0 0 0 0 0 0 0 0 0 0 0 0 0 0 0 0 0 0 0 0 0 0 0 0 0 0 -0 -0 -0 -0 -0 0 0 0
-0 -0 -0 -0 -0 -0 -0 -0 -0 0 0 0 0 0 0 0 0 0 0 0 0 0 0 0 0 0 0 0 0 0 0 0 0 0 -0 -0 -0 0 0 0 0 0 -0
-0 -0 -0 -0 -0 -0 0 0 -0 0 0 0 0 0 0 0 0 0 0 0 0 0 0 0 0 0 0 0 0 0 0 0 0 0 0 0 0 -0 0 0 0 -0 0
-0 -0 -0 -0 0 0 0 0 -0 -0 0 0 0 0 0 0 0 0 0 0 0 0 0 0 0 0 0 0 0 0 0 0 0 0 0 0 0 0 0 -0 -0 0 0
-0 -0 -0 -0 -0 -0 0 0 -0 -0 0 0 0 0 0 0 0 -0 0 0 0 0 0 0 0 0 0 0 0 0 0 0 0 0 0 0 0 0 0 0 -0 0 0
0 0 -0 -0 -0 -0 0 0 -0 -0 -0 0 0 0 0 0 0 0 0 0 0 0 0 0 0 0 0 0 0 0 0 0 0 0 0 0 0 0 0 -0 -0 0 0
0 0 0 0 -0 0 0 -0 0 -0 -0 0 0 0 0 0 0 0 0 0 0 0 0 0 0 0 0 0 0 0 0 0 0 -0 -0 -0 -0 -0 0 0 0 0 0
0 0 0 0 0 0 0 0 0 0 0 0 0 0 0 0 0 0 0 0 0 0 0 0 0 0 0 0 -0 -0 0 0 -0 -0 -0 -0 -0 -0 -0 0 0 0 0
0 0 0 0 0 0 0 0 0 0 0 0 0 0 0 0 0 0 0 -0 -0 -0 -0 -0 -0 -0 -0 -0 -0 -0 0 0 -0 0 -0 -0 0 0 0 0 0 0 0
0 0 0 0 0 0 0 0 0 -0 0 0 0 0 0 -0 -0 -0 -0 -0 0 -0 -0 -0 -0 -0 -0 -0 -0 -0 0 0 -0 -0 0 0 0 0 0 0 0 0 0
0 0 0 0 0 0 0 0 0 0 0 0 0 0 0 -0 -0 0 -0 -0 0 0 -0 -0 -0 -0 -0 -0 0 -0 -0 0 0 0 0 0 0 0 0 0 0 0 0
0 0 0 0 0 0 0 0 0 0 0 0 0 0 0 0 0 0 -0 -0 -0 -0 -0 -0 -0 -0 -0 -0 0 0 0 0 0 0 0 0 0 0 0 0 0 0 0
0 0 0 0 0 0 0 0 0 0 0 0 0 0 0 0 0 0 0 0 0 -0 -0 -0 -0 -0 -0 -0 -0 0 0 0 0 0 0 0 0 0 0 0 0 0 0
0 0 0 0 0 0 0 0 0 0 0 0 0 0 0 0 0 0 0 0 0 0 0 0 0 0 -0 -0 0 0 0 0 0 0 0 0 0 0 0 0 0 0 0
0 0 0 0 0 0 0 0 0 0 0 0 0 0 0 0 0 0 0 0 0 0 0 0 0 0 0 0 0 0 0 0 0 0 0 0 0 0 0 0 0 0 0
Wind_Speed_500mb
22 13 6 2 12 19 15 26 27 33 33 23 21 19 15 15 10 9 8 11 8 12 18 23 28 26 30 41 48 58 61 66 69 73 62 54 56 52 49 39 48 49 49
30 20 12 3 6 18 11 20 20 27 35 25 20 22 23 18 12 18 21 23 21 28 17 19 26 29 42 50 55 63 69 70 69 77 76 53 59 44 43 51 40 45 44
35 26 18 7 1 14 12 15 18 24 27 23 20 25 26 24 17 22 22 25 32 32 24 33 23 24 42 50 61 63 74 77 71 74 48 51 31 58 43 41 45 46 47
37 27 22 13 4 10 12 12 18 21 21 25 24 30 33 35 28 26 34 35 36 40 40 30 17 38 60 58 61 78 70 79 86 67 68 44 77 55 44 49 48 41 39
44 33 26 15 7 10 10 5 14 17 15 25 30 33 29 29 28 24 16 22 28 29 31 33 38 34 39 57 60 58 74 75 78 73 65 37 59 61 62 56 49 43 40
49 33 24 20 12 12 7 3 9 13 11 16 24 27 30 30 30 29 19 7 23 23 14 21 38 33 30 39 48 40 44 54 59 50 59 62 73 66 75 66 48 37 31
55 42 39 30 21 13 10 3 3 8 9 11 17 24 24 24 22 20 20 12 16 27 30 33 35 35 34 41 54 40 43 43 47 54 52 56 63 69 70 63 55 41 33
59 47 38 33 25 16 13 10 2 2 5 8 14 20 17 19 25 27 25 26 34 35 32 29 29 32 40 36 40 27 29 36 36 44 41 42 58 50 51 54 52 43 32
63 50 41 36 29 24 12 10 9 3 4 3 6 12 11 12 17 23 26 29 38 29 33 28 28 29 42 38 41 32 36 27 29 34 39 46 40 43 44 46 42 46 38
63 51 43 39 33 27 16 13 12 6 8 4 1 7 9 11 12 15 22 29 30 28 26 28 26 22 27 27 36 33 23 34 39 38 41 36 45 37 39 36 35 29 31
68 55 46 39 35 29 24 18 13 8 8 10 5 2 7 11 13 13 17 20 21 23 28 31 31 33 32 38 46 48 45 39 41 40 37 42 48 39 38 35 32 16 27
65 54 48 42 40 34 30 20 17 12 6 9 9 7 6 8 16 16 16 16 20 24 22 29 27 27 28 32 38 44 40 39 43 43 43 45 43 40 35 29 22 21 22
65 56 51 50 45 39 32 23 17 17 11 8 8 8 10 11 16 19 17 20 22 24 22 25 27 29 31 31 32 29 29 37 42 41 41 42 40 39 37 33 30 22 24
70 62 56 55 51 42 37 28 19 24 18 12 7 5 9 16 18 25 20 20 21 21 21 21 23 26 28 27 26 25 27 29 29 25 25 28 26 25 28 24 20 20 21
70 72 63 59 57 48 41 32 23 23 23 18 11 4 7 19 24 24 23 22 20 18 20 20 23 21 17 15 13 15 16 17 21 23 23 24 20 18 17 12 11 17 23
75 80 71 59 60 58 47 38 31 26 26 22 16 11 9 17 27 27 26 22 23 20 19 19 18 17 16 17 18 17 18 20 19 17 19 20 22 20 18 18 19 19 23
64 85 82 70 62 62 53 46 36 29 27 24 23 18 13 18 24 29 28 25 23 22 21 19 15 12 10 12 15 17 18 18 19 20 20 19 18 17 16 15 15 17 19
54 75 87 75 65 59 56 47 41 34 29 26 27 24 18 21 24 27 29 29 27 24 23 21 18 13 12 13 15 16 18 19 19 18 17 16 15 13 11 11 11 10 10
49 56 81 84 71 64 60 56 51 42 34 31 30 27 22 23 24 26 27 28 29 27 23 19 17 16 16 17 19 20 20 19 18 17 15 13 11 9 4 0 4 8 11
55 43 61 83 79 69 66 63 59 54 46 38 32 29 26 25 25 25 25 25 25 24 25 25 23 22 21 20 20 20 20 16 14 12 9 6 3 4 9 12 15 19 23
50 52 49 62 77 78 74 73 66 65 55 44 36 34 33 30 27 27 28 27 26 26 25 23 22 21 19 17 15 13 12 11 11 11 10 12 16 21 25 27 30 33 36
38 49 44 53 65 80 81 82 77 62 62 55 47 42 38 35 35 36 34 32 31 29 28 27 25 23 22 21 19 17 15 16 18 19 20 24 29 35 40 44 44 45 48
33 35 39 45 58 66 86 90 78 69 66 65 59 53 46 44 42 44 43 41 39 37 34 32 30 29 27 26 25 24 24 25 31 32 34 38 43 50 55 57 56 56 57
24 32 47 52 60 62 75 93 81 77 69 72 69 63 59 55 51 50 51 50 49 47 44 42 40 37 36 35 33 31 33 38 41 43 46 49 54 58 61 62 59 56 55
29 35 41 46 54 60 68 83 93 85 84 73 75 73 70 65 60 58 57 60 56 52 47 42 39 37 38 32 39 42 44 48 54 56 57 57 56 56 59 50 43 45 50
25 33 47 51 51 58 72 79 85 93 93 88 81 83 80 78 74 68 64 61 57 52 51 51 54 55 55 57 57 58 62 59 56 50 55 56 55 55 43 32 30 33 47
Wind_Direction_500mb
203 200 201 8 28 21 15 10 20 23 18 16 25 45 36 18 343 14 27 349 223 188 180 186 187 186 176 176 169 169 162 158 172 166 169 175 169 158 153 156 153 159 160
196 201 200 217 27 28 27 11 20 18 23 25 36 44 25 34 29 52 67 55 90 146 155 174 185 171 160 160 165 168 158 163 170 154 147 136 150 159 160 166 166 164 165
200 199 200 206 76 39 40 25 32 19 27 32 45 53 36 52 62 72 76 69 96 94 99 120 140 150 153 163 164 161 164 165 168 165 148 140 143 146 161 167 152 153 154
202 202 197 201 166 62 48 45 37 22 40 40 50 71 50 59 76 89 79 80 78 82 83 122 151 156 163 151 163 166 172 173 159 159 160 161 160 145 112 137 139 144 144
198 199 195 191 148 109 56 86 35 33 59 56 55 59 66 61 66 84 80 75 75 87 88 77 91 129 141 158 158 149 168 173 160 164 166 162 159 157 147 126 128 137 140
195 197 183 186 161 160 93 133 34 27 57 61 55 55 55 60 74 81 104 109 105 94 73 90 105 109 114 143 152 160 163 164 179 173 175 173 166 165 159 146 140 142 137
192 191 187 190 184 171 174 154 9 15 49 65 67 61 60 59 72 73 80 146 112 136 122 118 119 121 120 127 129 120 159 156 180 191 181 181 174 168 165 157 152 150 145
192 194 190 190 189 175 169 211 224 34 49 67 68 59 70 66 66 63 77 100 128 123 134 146 109 122 134 140 143 146 121 123 155 176 186 185 181 174 181 176 168 153 153
191 194 190 193 193 186 166 213 231 310 189 61 32 42 78 91 77 76 68 86 123 125 126 137 145 130 128 133 168 160 159 135 120 157 158 170 168 174 184 186 194 184 162
191 195 192 194 196 194 192 225 237 274 215 221 79 46 99 132 106 94 96 95 93 101 105 117 110 120 127 145 151 146 153 162 144 146 159 163 170 171 173 180 183 199 186
192 195 191 193 199 201 204 225 235 251 213 218 214 116 119 142 140 122 116 110 114 114 111 112 110 112 100 110 115 116 112 125 135 146 154 160 167 166 171 173 177 174 185
192 194 192 190 198 202 197 209 219 226 198 189 193 204 178 150 164 145 134 117 115 110 107 117 122 125 118 118 125 119 119 122 130 135 142 146 150 154 157 160 168 169 179
198 195 194 195 199 200 198 196 212 206 201 185 175 188 193 174 168 164 148 146 134 144 122 118 128 132 130 126 126 128 125 128 129 129 133 133 141 145 146 145 150 149 159
201 196 197 202 203 203 203 199 203 205 205 205 204 194 193 185 175 180 171 159 158 147 146 149 136 130 129 128 128 130 133 136 138 135 136 131 132 139 144 146 159 179 173
208 202 200 206 205 204 204 203 198 204 212 211 217 222 208 190 184 181 182 173 160 155 152 143 143 148 151 146 144 140 143 141 142 140 140 143 146 149 153 160 173 193 209
210 211 206 205 206 207 205 203 200 200 211 212 211 217 216 189 186 185 185 182 181 174 167 160 151 145 149 155 163 173 177 179 176 177 176 180 188 196 201 204 203 204 217
210 216 209 208 207 204 203 204 199 199 208 205 208 217 212 190 184 191 195 195 195 193 191 190 199 210 203 190 192 193 190 187 186 191 197 201 202 210 216 219 223 219 217
214 218 219 213 212 208 204 204 201 202 202 203 206 213 211 194 188 188 191 197 203 205 207 208 213 212 198 182 172 164 157 155 158 160 161 166 169 172 180 188 193 205 219
230 226 222 218 212 207 202 202 202 203 202 203 203 210 216 203 195 190 191 193 197 200 198 191 176 161 152 151 146 142 142 144 145 144 144 142 136 142 151 226 313 306 303
237 225 224 223 215 212 205 202 203 203 203 201 201 203 210 211 200 189 183 179 178 176 174 170 166 161 156 149 144 141 141 143 149 152 149 154 191 255 276 284 289 290 287
241 230 224 223 220 210 207 205 204 206 206 196 199 203 205 206 199 190 184 177 175 176 175 174 174 170 168 164 165 171 174 183 203 212 230 252 267 276 280 282 284 285 286
224 224 223 224 220 212 209 209 207 207 207 202 200 204 204 202 199 195 188 186 188 187 183 181 181 181 187 194 202 209 215 226 237 242 253 266 274 277 278 279 281 284 285
209 218 230 222 218 211 211 211 211 207 206 206 203 207 205 204 201 201 197 197 197 196 196 199 203 206 212 218 225 234 239 246 255 261 265 268 275 280 283 286 287 288 290
197 222 218 219 219 216 212 217 213 207 207 207 205 207 212 209 207 207 206 206 206 207 209 216 225 230 230 236 238 243 250 257 266 276 283 288 287 288 290 290 290 290 291
231 223 225 226 225 225 219 214 217 211 209 210 209 207 211 214 213 214 215 215 217 219 223 230 235 237 241 228 249 261 269 276 281 284 286 289 289 290 292 294 288 289 289
251 248 234 227 225 227 223 217 218 215 213 211 212 212 210 213 218 217 220 224 229 233 236 241 249 257 265 273 276 279 281 281 285 285 287 290 291 296 293 275 278 287 299
Wind_Speed_850mb
22 13 6 2 12 19 15 26 27 33 33 23 21 19 15 15 10 9 8 11 8 12 18 23 28 26 30 41 48 58 61 66 69 73 62 54 56 52 49 39 48 49 49
30 20 12 3 6 18 11 20 20 27 35 25 20 22 23 18 12 18 21 23 21 28 17 19 26 29 42 50 55 63 69 70 69 77 76 53 59 44 43 51 40 45 44
35 26 18 7 1 14 12 15 18 24 27 23 20 25 26 24 17 22 22 25 32 32 24 33 23 24 42 50 61 63 74 77 71 74 48 51 31 58 43 41 45 46 47
37 27 22 13 4 10 12 12 18 21 21 25 24 30 33 35 28 26 34 35 36 40 40 30 17 38 60 58 61 78 70 79 86 67 68 44 77 55 44 49 48 41 39
44 33 26 15 7 10 10 5 14 17 15 25 30 33 29 29 28 24 16 22 28 29 31 33 38 34 39 57 60 58 74 75 78 73 65 37 59 61 62 56 49 43 40
49 33 24 20 12 12 7 3 9 13 11 16 24 27 30 30 30 29 19 7 23 23 14 21 38 33 30 39 48 40 44 54 59 50 59 62 73 66 75 66 48 37 31
55 42 39 30 21 13 10 3 3 8 9 11 17 24 24 24 22 20 20 12 16 27 30 33 35 35 34 41 54 40 43 43 47 54 52 56 63 69 70 63 55 41 33
59 47 38 33 25 16 13 10 2 2 5 8 14 20 17 19 25 27 25 26 34 35 32 29 29 32 40 36 40 27 29 36 36 44 41 42 58 50 51 54 52 43 32
63 50 41 36 29 24 12 10 9 3 4 3 6 12 11 12 17 23 26 29 38 29 33 28 28 29 42 38 41 32 36 27 29 34 39 46 40 43 44 46 42 46 38
63 51 43 39 33 27 16 13 12 6 8 4 1 7 9 11 12 15 22 29 30 28 26 28 26 22 27 27 36 33 23 34 39 38 41 36 45 37 39 36 35 29 31
68 55 46 39 35 29 24 18 13 8 8 10 5 2 7 11 13 13 17 20 21 23 28 31 31 33 32 38 46 48 45 39 41 40 37 42 48 39 38 35 32 16 27
65 54 48 42 40 34 30 20 17 12 6 9 9 7 6 8 16 16 16 16 20 24 22 29 27 27 28 32 38 44 40 39 43 43 43 45 43 40 35 29 22 21 22
65 56 51 50 45 39 32 23 17 17 11 8 8 8 10 11 16 19 17 20 22 24 22 25 27 29 31 31 32 29 29 37 42 41 41 42 40 39 37 33 30 22 24
70 62 56 55 51 42 37 28 19 24 18 12 7 5 9 16 18 25 20 20 21 21 21 21 23 26 28 27 26 25 27 29 29 25 25 28 26 25 28 24 20 20 21
70 72 63 59 57 48 41 32 23 23 23 18 11 4 7 19 24 24 23 22 20 18 20 20 23 21 17 15 13 15 16 17 21 23 23 24 20 18 17 12 11 17 23
75 80 71 59 60 58 47 38 31 26 26 22 16 11 9 17 27 27 26 22 23 20 19 19 18 17 16 17 18 17 18 20 19 17 19 20 22 20 18 18 19 19 23
64 85 82 70 62 62 53 46 36 29 27 24 23 18 13 18 24 29 28 25 23 22 21 19 15 12 10 12 15 17 18 18 19 20 20 19 18 17 16 15 15 17 19
54 75 87 75 65 59 56 47 41 34 29 26 27 24 18 21 24 27 29 29 27 24 23 21 18 13 12 13 15 16 18 19 19 18 17 16 15 13 11 11 11 10 10
49 56 81 84 71 64 60 56 51 42 34 31 30 27 22 23 24 26 27 28 29 27 23 19 17 16 16 17 19 20 20 19 18 17 15 13 11 9 4 0 4 8 11
55 43 61 83 79 69 66 63 59 54 46 38 32 29 26 25 25 25 25 25 25 24 25 25 23 22 21 20 20 20 20 16 14 12 9 6 3 4 9 12 15 19 23
50 52 49 62 77 78 74 73 66 65 55 44 36 34 33 30 27 27 28 27 26 26 25 23 22 21 19 17 15 13 12 11 11 11 10 12 16 21 25 27 30 33 36
38 49 44 53 65 80 81 82 77 62 62 55 47 42 38 35 35 36 34 32 31 29 28 27 25 23 22 21 19 17 15 16 18 19 20 24 29 35 40 44 44 45 48
33 35 39 45 58 66 86 90 78 69 66 65 59 53 46 44 42 44 43 41 39 37 34 32 30 29 27 26 25 24 24 25 31 32 34 38 43 50 55 57 56 56 57
24 32 47 52 60 62 75 93 81 77 69 72 69 63 59 55 51 50 51 50 49 47 44 42 40 37 36 35 33 31 33 38 41 43 46 49 54 58 61 62 59 56 55
29 35 41 46 54 60 68 83 93 85 84 73 75 73 70 65 60 58 57 60 56 52 47 42 39 37 38 32 39 42 44 48 54 56 57 57 56 56 59 50 43 45 50
25 33 47 51 51 58 72 79 85 93 93 88 81 83 80 78 74 68 64 61 57 52 51 51 54 55 55 57 57 58 62 59 56 50 55 56 55 55 43 32 30 33 47
Wind_Direction_850mb
203 200 201 8 28 21 15 10 20 23 18 16 25 45 36 18 343 14 27 349 223 188 180 186 187 186 176 176 169 169 162 158 172 166 169 175 169 158 153 156 153 159 160
196 201 200 217 27 28 27 11 20 18 23 25 36 44 25 34 29 52 67 55 90 146 155 174 185 171 160 160 165 168 158 163 170 154 147 136 150 159 160 166 166 164 165
200 199 200 206 76 39 40 25 32 19 27 32 45 53 36 52 62 72 76 69 96 94 99 120 140 150 153 163 164 161 164 165 168 165 148 140 143 146 161 167 152 153 154
202 202 197 201 166 62 48 45 37 22 40 40 50 71 50 59 76 89 79 80 78 82 83 122 151 156 163 151 163 166 172 173 159 159 160 161 160 145 112 137 139 144 144
198 199 195 191 148 109 56 86 35 33 59 56 55 59 66 61 66 84 80 75 75 87 88 77 91 129 141 158 158 149 168 173 160 164 166 162 159 157 147 126 128 137 140
195 197 183 186 161 160 93 133 34 27 57 61 55 55 55 60 74 81 104 109 105 94 73 90 105 109 114 143 152 160 163 164 179 173 175 173 166 165 159 146 140 142 137
192 191 187 190 184 171 174 154 9 15 49 65 67 61 60 59 72 73 80 146 112 136 122 118 119 121 120 127 129 120 159 156 180 191 181 181 174 168 165 157 152 150 145
192 194 190 190 189 175 169 211 224 34 49 67 68 59 70 66 66 63 77 100 128 123 134 146 109 122 134 140 143 146 121 123 155 176 186 185 181 174 181 176 168 153 153
191 194 190 193 193 186 166 213 231 310 189 61 32 42 78 91 77 76 68 86 123 125 126 137 145 130 128 133 168 160 159 135 120 157 158 170 168 174 184 186 194 184 162
191 195 192 194 196 194 192 225 237 274 215 221 79 46 99 132 106 94 96 95 93 101 105 117 110 120 127 145 151 146 153 162 144 146 159 163 170 171 173 180 183 199 186
192 195 191 193 199 201 204 225 235 251 213 218 214 116 119 142 140 122 116 110 114 114 111 112 110 112 100 110 115 116 112 125 135 146 154 160 167 166 171 173 177 174 185
192 194 192 190 198 202 197 209 219 226 198 189 193 204 178 150 164 145 134 117 115 110 107 117 122 125 118 118 125 119 119 122 130 135 142 146 150 154 157 160 168 169 179
198 195 194 195 199 200 198 196 212 206 201 185 175 188 193 174 168 164 148 146 134 144 122 118 128 132 130 126 126 128 125 128 129 129 133 133 141 145 146 145 150 149 159
201 196 197 202 203 203 203 199 203 205 205 205 204 194 193 185 175 180 171 159 158 147 146 149 136 130 129 128 128 130 133 136 138 135 136 131 132 139 144 146 159 179 173
208 202 200 206 205 204 204 203 198 204 212 211 217 222 208 190 184 181 182 173 160 155 152 143 143 148 151 146 144 140 143 141 142 140 140 143 146 149 153 160 173 193 209
210 211 206 205 206 207 205 203 200 200 211 212 211 217 216 189 186 185 185 182 181 174 167 160 151 145 149 155 163 173 177 179 176 177 176 180 188 196 201 204 203 204 217
210 216 209 208 207 204 203 204 199 199 208 205 208 217 212 190 184 191 195 195 195 193 191 190 199 210 203 190 192 193 190 187 186 191 197 201 202 210 216 219 223 219 217
214 218 219 213 212 208 204 204 201 202 202 203 206 213 211 194 188 188 191 197 203 205 207 208 213 212 198 182 172 164 157 155 158 160 161 166 169 172 180 188 193 205 219
230 226 222 218 212 207 202 202 202 203 202 203 203 210 216 203 195 190 191 193 197 200 198 191 176 161 152 151 146 142 142 144 145 144 144 142 136 142 151 226 313 306 303
237 225 224 223 215 212 205 202 203 203 203 201 201 203 210 211 200 189 183 179 178 176 174 170 166 161 156 149 144 141 141 143 149 152 149 154 191 255 276 284 289 290 287
241 230 224 223 220 210 207 205 204 206 206 196 199 203 205 206 199 190 184 177 175 176 175 174 174 170 168 164 165 171 174 183 203 212 230 252 267 276 280 282 284 285 286
224 224 223 224 220 212 209 209 207 207 207 202 200 204 204 202 199 195 188 186 188 187 183 181 181 181 187 194 202 209 215 226 237 242 253 266 274 277 278 279 281 284 285
209 218 230 222 218 211 211 211 211 207 206 206 203 207 205 204 201 201 197 197 197 196 196 199 203 206 212 218 225 234 239 246 255 261 265 268 275 280 283 286 287 288 290
197 222 218 219 219 216 212 217 213 207 207 207 205 207 212 209 207 207 206 206 206 207 209 216 225 230 230 236 238 243 250 257 266 276 283 288 287 288 290 290 290 290 291
231 223 225 226 225 225 219 214 217 211 209 210 209 207 211 214 213 214 215 215 217 219 223 230 235 237 241 228 249 261 269 276 281 284 286 289 289 290 292 294 288 289 289
251 248 234 227 225 227 223 217 218 215 213 211 212 212 210 213 218 217 220 224 229 233 236 241 249 257 265 273 276 279 281 281 285 285 287 290 291 296 293 275 278 287 299